STARLINK-32857 (62949 NORAD) Tracking and Keplerian Element Data

This shows tracking and keplerian element data for the satellite.

Feedback or suggestion? Click here.




ElementValue
Catalog62949
NameSTARLINK-32857
Epoch Orbit4920
Epoch Day354.07455764
Epoch Year2025
RAAN239.7565
Inclination53.1606
Eccentricity0.0001479
Argument of Perigee93.6319
Mean Anonmoly266.4851
Mean Motion15.30237028
Decay Rate0.0002396
L11 62949U 25029B 25354.07455764 .00023960 00000+0 81755-3 0 9993
L22 62949 53.1606 239.7565 0001479 93.6319 266.4851 15.30237028 49200



Live tracking and technical data element details for STARLINK-32857 (NORAD 62949). STARLINK-32857 can be tracked NOW for your location showing map with azimuth and elevation plus other details from your city location.







IsCatalogInMostPopularTable: catalog: 62949, numindb: 2
Update: records affected: 1



GetName: 62949 STARLINK-32857

Hit Count: updated at: Sun, 08 Feb 2026 17:10:04 GMT